CW1459 Weather Reports


time (UTC)temp
C
wind
direction
speed
KPH
gust
KPH
rain 1hr
cm
rain 24hr
cm
rain mn
cm
humidity
%
barometer
mb
20260503003321 10 5 8.0 17.7 0.00 0.03 0.00 56 1012.0
20260503002323 10 338 9.7 19.3 0.00 0.03 0.00 54 1011.9
20260503001337 10 303 12.9 24.1 0.00 0.03 0.00 52 1011.7
20260503000336 10 351 11.3 17.7 0.00 0.03 0.00 51 1011.6
20260502235333 10 340 6.4 16.1 0.00 0.03 0.00 50 1011.4
20260502234337 11 329 11.3 20.9 0.00 0.03 0.00 50 1011.4
20260502233336 11 306 8.0 24.1 0.00 0.03 0.00 50 1011.3
20260502232337 11 290 6.4 16.1 0.00 0.03 0.00 49 1011.3
20260502231400 11 14 8.0 19.3 0.00 0.03 0.00 48 1011.2
20260502230314 11 351 6.4 12.9 0.00 0.03 0.00 50 1011.1
20260502225314 11 323 6.4 14.5 0.00 0.03 0.00 49 1011.0
20260502224338 11 343 6.4 14.5 0.00 0.03 0.00 48 1011.0
20260502223338 11 324 11.3 20.9 0.00 0.03 0.00 47 1011.0
20260502222319 12 337 8.0 17.7 0.00 0.03 0.00 47 1010.9
20260502221332 12 351 6.4 14.5 0.00 0.03 0.00 49 1010.8
20260502220316 12 319 9.7 16.1 0.00 0.03 0.00 46 1010.8
20260502215338 12 323 8.0 17.7 0.00 0.03 0.00 47 1010.9
20260502214315 12 338 6.4 14.5 0.00 0.03 0.00 48 1010.9
20260502213353 12 328 11.3 19.3 0.00 0.03 0.00 47 1011.0
20260502212320 12 317 9.7 17.7 0.00 0.03 0.00 48 1011.1
20260502211337 12 351 11.3 17.7 0.00 0.03 0.00 48 1010.9
20260502210316 12 326 11.3 19.3 0.00 0.03 0.00 48 1010.7
20260502205342 12 324 12.9 22.5 0.00 0.03 0.00 47 1010.7
20260502204350 13 331 9.7 22.5 0.00 0.03 0.00 47 1010.6
20260502203333 13 291 4.8 17.7 0.00 0.03 0.00 49 1010.7
20260502202336 13 315 9.7 22.5 0.00 0.03 0.00 47 1010.7
20260502201333 13 331 11.3 19.3 0.00 0.03 0.00 47 1010.8
20260502200314 13 348 6.4 22.5 0.00 0.03 0.00 51 1010.8
20260502195332 12 325 9.7 19.3 0.00 0.03 0.00 50 1010.9
20260502194339 12 320 6.4 16.1 0.00 0.03 0.00 50 1011.1
20260502193314 12 326 12.9 19.3 0.00 0.03 0.00 48 1011.4
20260502192339 12 297 8.0 19.3 0.00 0.03 0.00 49 1011.4
20260502191314 13 324 4.8 16.1 0.00 0.03 0.00 49 1011.5
20260502190314 13 331 8.0 17.7 0.00 0.03 0.00 46 1011.7
20260502185339 13 22 9.7 17.7 0.00 0.03 0.00 46 1011.8
20260502184315 13 321 3.2 17.7 0.00 0.03 0.00 49 1011.9
20260502183327 14 305 11.3 20.9 0.00 0.03 0.00 46 1012.0
20260502182333 13 349 12.9 19.3 0.00 0.03 0.00 48 1012.1
20260502181338 13 325 8.0 17.7 0.00 0.03 0.00 47 1012.2
20260502180337 13 328 3.2 14.5 0.00 0.03 0.00 47 1012.3
20260502170313 13 5 9.7 14.5 0.00 0.03 0.00 48 1012.4
20260502164340 12 11 8.0 16.1 0.00 0.03 0.00 46 1012.7
20260502163314 13 302 8.0 14.5 0.00 0.03 0.00 45 1012.8
20260502162330 12 5 4.8 14.5 0.00 0.03 0.00 48 1012.8
20260502161317 13 274 8.0 12.9 0.00 0.03 0.00 47 1012.9
20260502160317 12 316 6.4 16.1 0.00 0.03 0.00 46 1013.0
20260502152326 11 291 3.2 12.9 0.00 0.03 0.00 54 1013.4
20260502151349 11 337 8.0 17.7 0.00 0.03 0.00 57 1013.4
20260502150329 11 298 6.4 14.5 0.00 0.03 0.00 54 1013.4
20260502130358 8 323 9.7 17.7 0.00 0.03 0.00 70 1013.6
20260502123312 8 321 11.3 14.5 0.00 0.03 0.00 72 1013.5
20260502122314 7 333 9.7 14.5 0.00 0.03 0.00 74 1013.5
20260502121315 7 351 8.0 19.3 0.00 0.03 0.00 74 1013.4
20260502120333 7 26 8.0 16.1 0.00 0.03 0.00 75 1013.4
20260502115336 6 17 9.7 14.5 0.00 0.03 0.00 76 1013.5
20260502113329 6 349 6.4 14.5 0.00 0.03 0.00 78 1013.6
20260502112334 6 331 6.4 12.9 0.00 0.03 0.00 78 1013.5
20260502111319 6 360 3.2 14.5 0.00 0.03 0.00 78 1013.5
20260502110312 5 9 6.4 16.1 0.00 0.03 0.00 78 1013.4
20260502105316 5 328 8.0 16.1 0.00 0.03 0.00 79 1013.3
20260502104333 5 321 6.4 16.1 0.00 0.03 0.00 79 1013.2
20260502103311 5 319 8.0 16.1 0.00 0.03 0.00 79 1013.1
20260502102313 5 350 8.0 16.1 0.00 0.03 0.00 78 1013.3
20260502101316 6 346 6.4 17.7 0.00 0.03 0.00 79 1013.2
20260502100315 6 319 8.0 17.7 0.00 0.03 0.00 79 1013.0
20260502091313 6 323 8.0 14.5 0.00 0.03 0.00 79 1012.7
20260502090322 6 316 6.4 14.5 0.00 0.03 0.00 78 1012.6
20260502071342 8 321 4.8 9.7 0.00 0.03 0.00 75 1012.0
20260502070320 8 322 1.6 4.8 0.00 0.03 0.00 74 1012.0
20260502065315 8 284 1.6 3.2 0.00 0.03 0.00 74 1011.8
20260502064337 8 284 0.0 3.2 0.00 0.03 0.00 73 1011.9
20260502063317 8 312 0.0 14.5 0.00 0.03 0.00 72 1012.0
20260502062321 8 298 0.0 8.0 0.00 0.03 0.00 73 1011.8
20260502061340 9 329 1.6 4.8 0.00 0.03 0.00 72 1011.9
20260502060340 9 315 4.8 8.0 0.00 0.03 0.00 72 1012.0
20260502055330 10 341 1.6 4.8 0.00 0.03 0.00 72 1011.8
20260502054328 10 321 3.2 8.0 0.00 0.03 0.00 71 1012.0
20260502053340 10 334 3.2 22.5 0.00 0.03 0.00 72 1012.1
20260502052340 10 291 6.4 19.3 0.00 0.03 0.00 74 1012.1
20260502051337 10 297 4.8 12.9 0.00 0.03 0.00 76 1012.1
20260502050340 10 276 3.2 12.9 0.00 0.03 0.00 78 1012.2
20260502045355 10 303 1.6 8.0 0.00 0.03 0.00 79 1012.1
20260502044323 10 322 4.8 12.9 0.00 0.03 0.00 82 1011.9
20260502043322 10 342 1.6 12.9 0.03 0.03 0.00 84 1012.1
20260502042337 10 344 4.8 12.9 0.03 0.03 0.00 85 1011.9
20260502041318 10 108 0.0 1.6 0.03 0.03 0.00 86 1011.8
20260502040319 10 101 1.6 3.2 0.03 0.03 0.00 84 1011.6
20260502035355 10 95 1.6 4.8 0.03 0.03 0.03 82 1011.7
20260502034336 11 79 0.0 3.2 0.03 0.03 0.03 79 1011.4
20260502033329 11 351 0.0 3.2 0.00 0.00 0.00 77 1011.3
20260502032338 11 332 3.2 6.4 0.00 0.00 0.00 74 1011.3
20260502031400 11 321 4.8 12.9 0.00 0.00 0.00 73 1011.1
20260502030318 11 328 1.6 4.8 0.00 0.00 0.00 72 1011.2
20260502025340 12 346 1.6 4.8 0.00 0.00 0.00 70 1011.3
20260502024339 12 351 3.2 4.8 0.00 0.00 0.00 67 1011.3
20260502023333 12 5 1.6 9.7 0.00 0.00 0.00 63 1011.4
20260502022340 12 349 1.6 9.7 0.00 0.00 0.00 65 1011.4
20260502021314 12 5 3.2 14.5 0.00 0.00 0.00 66 1011.2
20260502020350 12 340 6.4 14.5 0.00 0.00 0.00 70 1010.7
20260502015332 12 360 8.0 19.3 0.00 0.00 0.00 73 1010.8
20260502014325 12 310 3.2 4.8 0.00 0.00 0.00 75 1010.1
20260502013334 12 144 1.6 4.8 0.00 0.00 0.00 74 1009.7
20260502012316 12 123 3.2 4.8 0.00 0.00 0.00 73 1009.4
20260502011316 13 120 0.0 3.2 0.00 0.00 0.00 72 1009.4
20260502010337 13 120 1.6 3.2 0.00 0.00 0.00 69 1009.1
20260502005315 13 120 0.0 4.8 0.00 0.00 0.00 67 1009.0
20260502004338 13 110 1.6 4.8 0.00 0.00 0.00 66 1008.9